{"data":{"norad_id":65193,"epoch":"2026-05-25T02:50:05.624160Z","epoch_age_seconds":65113,"freshness":"FRESH","line1":"1 65193U 25175V   26145.11812065  .00004053  00000+0  28471-3 0  9992","line2":"2 65193  97.4532  17.6614 0002027  83.6329 276.5129 15.05658214 44112","mean_motion":15.05658214,"eccentricity":0.0002027,"inclination_deg":97.4532,"raan_deg":17.6614,"arg_perigee_deg":83.6329,"mean_anomaly_deg":276.5129,"bstar":0.00028471,"rev_number":4411,"period_min":95.639235160444,"perigee_km":548.08172934931,"apogee_km":550.89018769669,"semimajor_km":6927.622958523,"source":"CELESTRAK","updated_at":"2026-05-25T13:38:20.716304Z"}}